This is the latest recevied weather packets stored in our database for station/object WA7CUG. If no packets are shown the sender has not sent any weather packets the latest 10 day(s).
| Time | Temp. | Humidity | Pressure | Rain* | Wind** | Luminosity | Snow |
|---|---|---|---|---|---|---|---|
| 1778095725 | 27.22° C | 36% | 1011.4 hPa | 0 mm | - | 588 W/m² | - |
| 1778095422 | 26.67° C | 41% | 1011.8 hPa | 0 mm | - | 658 W/m² | - |
| 1778095119 | 26.11° C | 41% | 1011.7 hPa | 0 mm | - | 623 W/m² | - |
| 1778094815 | 26.11° C | 40% | 1011.8 hPa | 0 mm | - | 640 W/m² | - |
| 1778094513 | 26.11° C | 39% | 1011.8 hPa | 0 mm | - | 581 W/m² | - |
| 1778094209 | 26.67° C | 38% | 1011.9 hPa | 0 mm | - | 647 W/m² | - |
| 1778093906 | 25.56° C | 44% | 1012 hPa | 0 mm | - | 531 W/m² | - |
| 1778093603 | 25.56° C | 45% | 1012.1 hPa | 0 mm | - | 652 W/m² | - |
| 1778093300 | 25° C | 44% | 1012.2 hPa | 0 mm | - | 636 W/m² | - |
| 1778092997 | 25° C | 45% | 1012.3 hPa | 0 mm | - | 634 W/m² | - |
| 1778092695 | 25° C | 43% | 1012.2 hPa | 0 mm | - | 655 W/m² | - |
| 1778092389 | 25° C | 45% | 1012.4 hPa | 0 mm | - | 637 W/m² | - |
| 1778092087 | 25.56° C | 43% | 1012.5 hPa | 0 mm | - | 606 W/m² | - |
| 1778091784 | 25° C | 43% | 1012.1 hPa | 0 mm | - | 584 W/m² | - |
| 1778091482 | 24.44° C | 45% | 1012.5 hPa | 0 mm | - | 611 W/m² | - |
| 1778091179 | 24.44° C | 47% | 1012.2 hPa | 0 mm | - | 553 W/m² | - |
| 1778090876 | 23.33° C | 44% | 1012.6 hPa | 0 mm | - | 577 W/m² | - |
| 1778090572 | 23.89° C | 47% | 1012.4 hPa | 0 mm | - | 589 W/m² | - |
| 1778090268 | 23.33° C | 46% | 1012.7 hPa | 0 mm | - | 574 W/m² | - |
| 1778089965 | 22.78° C | 47% | 1012.6 hPa | 0 mm | - | 552 W/m² | - |
| 1778089663 | 22.78° C | 48% | 1012.6 hPa | 0 mm | - | 569 W/m² | - |
| 1778089360 | 22.22° C | 48% | 1012.5 hPa | 0 mm | - | 557 W/m² | - |
| 1778089058 | 22.22° C | 48% | 1012.8 hPa | 0 mm | - | 545 W/m² | - |
| 1778088754 | 22.22° C | 48% | 1012.6 hPa | 0 mm | - | 530 W/m² | - |
| 1778088450 | 21.67° C | 51% | 1012.6 hPa | 0 mm | - | 526 W/m² | - |
* Rain latest hour (hover to see other rain measurements)
** Current wind speed in m/s (hover to see current wind gust speed)